Weather History for Guernsey, United Kingdom

Change the Weather History Date:

Friday, October 12, 2012

  Actual Average Record
Temperature  
Mean Temperature 52 °F -  
Max Temperature 57 °F 55 °F 66 °F (2001)
Min Temperature 48 °F 49 °F 48 °F (1999)
Degree Days  
Heating Degree Days 12    
Growing Degree Days 2 (Base 50)    
Moisture  
Dew Point 46 °F    
Average Humidity 77    
Maximum Humidity 95    
Minimum Humidity 60    
Precipitation  
Precipitation 0.08 in - - ()
Sea Level Pressure  
Sea Level Pressure 29.86 in    
Wind  
Wind Speed 19 mph ()    
Max Wind Speed 24 mph    
Max Gust Speed 39 mph    
Visibility 7.5 miles    
Events Rain , Thunderstorm    
Averages and records for this station are not official NWS values.
T = Trace of Precipitation, MM = Missing Value Source: Averaged Metar Reports

Daily Weather History Graph

Daily Weather History Graph

Search for Another Location

Airport:

Trip Planner

Search our weather history database for the weather conditions in past years. The results will help you decide how hot, cold, wet, or windy it might be!

Date:

Astronomy

Oct. 12, 2012 Rise Set
Actual Time 7:27 AM BST 6:25 PM BST
Civil Twilight 6:55 AM BST 6:57 PM BST
Nautical Twilight 6:18 AM BST 7:34 PM BST
Astronomical Twilight 5:41 AM BST 8:11 PM BST
Moon 3:37 AM BST (10/12) 4:40 PM BST (10/12)
Length of Visible Light 12h 02m
Length of Day
10h 58m
Waning Crescent, 12% of the Moon is Illuminated
Oct 12
Waning Crescent
Oct 15
New
Oct 22
First Quarter
Oct 29
Full
Nov 7
Last Quarter

Hourly Weather History & Observations

Time (BST) Temp. Dew Point Humidity Pressure Visibility Wind Dir Wind Speed Gust Speed Precip Events Conditions
1:00 AM 55 °F 48 °F 70% 29.74 in 16 mi WNW 21.9 mph - -   Partly Cloudy
3:50 AM 53.6 °F 44.6 °F 72% 29.77 in 6.2 mi West 24.2 mph - N/A   Partly Cloudy
4:00 AM 53 °F 44 °F 62% 29.78 in 19 mi West 24.2 mph - -   Partly Cloudy
4:20 AM 53.6 °F 44.6 °F 72% 29.77 in 6.2 mi West 24.2 mph - N/A   Partly Cloudy
4:50 AM 51.8 °F 44.6 °F 76% 29.77 in 6.2 mi West 24.2 mph - N/A   Partly Cloudy
5:20 AM 51.8 °F 41.0 °F 67% 29.80 in 6.2 mi WNW 24.2 mph - N/A   Scattered Clouds
5:50 AM 51.8 °F 42.8 °F 71% 29.80 in 6.2 mi West 23.0 mph - N/A   Scattered Clouds
6:20 AM 51.8 °F 42.8 °F 71% 29.83 in 6.2 mi West 19.6 mph - N/A   Scattered Clouds
6:50 AM 51.8 °F 42.8 °F 71% 29.83 in 6.2 mi West 21.9 mph - N/A   Partly Cloudy
7:00 AM 52 °F 42 °F 60% 29.84 in 25 mi West 21.9 mph - -   Partly Cloudy
7:20 AM 51.8 °F 44.6 °F 76% 29.83 in 6.2 mi West 17.3 mph - N/A   Partly Cloudy
7:50 AM 51.8 °F 44.6 °F 76% 29.83 in 6.2 mi West 18.4 mph - N/A   Scattered Clouds
8:20 AM 51.8 °F 46.4 °F 82% 29.86 in 6.2 mi WSW 12.7 mph - N/A   Scattered Clouds
8:50 AM 50.0 °F 46.4 °F 87% 29.86 in 6.2 mi West 16.1 mph - N/A   Scattered Clouds
9:20 AM 53.6 °F 48.2 °F 82% 29.86 in 6.2 mi West 20.7 mph 36.8 mph N/A Rain Light Rain Showers
9:50 AM 50.0 °F 48.2 °F 94% 29.89 in 6.2 mi West 16.1 mph - N/A   Partly Cloudy
10:00 AM 51 °F 48 °F 87% 29.90 in 19 mi West 16.1 mph - - Rain Light Rain Showers
10:20 AM 53.6 °F 48.2 °F 82% 29.89 in 6.2 mi West 17.3 mph - N/A   Scattered Clouds
10:50 AM 51.8 °F 44.6 °F 76% 29.89 in 6.2 mi West 21.9 mph 34.5 mph N/A Rain Light Rain Showers
11:20 AM 55.4 °F 48.2 °F 77% 29.89 in 6.2 mi West 23.0 mph - N/A   Partly Cloudy
11:50 AM 55.4 °F 48.2 °F 77% 29.89 in 6.2 mi West 23.0 mph - N/A   Scattered Clouds
12:20 PM 55.4 °F 46.4 °F 72% 29.89 in 6.2 mi West 24.2 mph - N/A   Scattered Clouds
12:50 PM 53.6 °F 46.4 °F 77% 29.89 in 6.2 mi West 18.4 mph - N/A   Partly Cloudy
1:00 PM 54 °F 46 °F 67% 29.91 in 25 mi West 18.4 mph - - Rain Light Rain Showers
1:20 PM 55.4 °F 46.4 °F 72% 29.89 in 6.2 mi West 19.6 mph - N/A   Scattered Clouds
1:50 PM 57.2 °F 48.2 °F 72% 29.89 in 6.2 mi West 21.9 mph - N/A   Scattered Clouds
2:20 PM 57.2 °F 48.2 °F 72% 29.89 in 6.2 mi WSW 19.6 mph - N/A   Mostly Cloudy
2:50 PM 53.6 °F 51.8 °F 94% 29.89 in 6.2 mi West 15.0 mph - N/A   Mostly Cloudy
3:50 PM 55.4 °F 48.2 °F 77% 29.89 in 6.2 mi WSW 18.4 mph - N/A   Scattered Clouds
4:00 PM 55 °F 47 °F 68% 29.90 in 28 mi WSW 18.4 mph - -   Partly Cloudy
4:20 PM 55.4 °F 48.2 °F 77% 29.89 in 6.2 mi WSW 18.4 mph - N/A   Scattered Clouds
4:50 PM 55.4 °F 46.4 °F 72% 29.89 in 6.2 mi WSW 19.6 mph - N/A   Partly Cloudy
5:20 PM 55.4 °F 46.4 °F 72% 29.89 in 6.2 mi WSW 16.1 mph - N/A   Scattered Clouds
6:20 PM 53.6 °F 46.4 °F 77% 29.86 in 6.2 mi WSW 17.3 mph - N/A   Partly Cloudy
6:50 PM 53.6 °F 48.2 °F 82% 29.86 in 6.2 mi SW 16.1 mph - N/A   Partly Cloudy
7:00 PM 54 °F 49 °F 77% 29.88 in 19 mi SW 16.1 mph - - Rain Light Rain Showers
7:50 PM 55.4 °F 48.2 °F 77% 29.86 in 6.2 mi SW 19.6 mph - N/A   Scattered Clouds
8:20 PM 51.8 °F 48.2 °F 88% 29.83 in 5.0 mi SW 24.2 mph 39.1 mph N/A Rain , Thunderstorm Thunderstorms and Rain
8:50 PM 48.2 °F 46.4 °F 93% 29.86 in 6.2 mi WNW 11.5 mph - N/A Rain Light Rain Showers
10:00 PM 50 °F 49 °F 95% 29.87 in 7 mi West 11.5 mph - - Rain Light Rain Showers